Regional Weather Roundup
Issued by NWS

Home | Current Version | Previous Version | Graphics & Text | Print | Product List | Glossary On
Versions: 1 2 3 4 5 6 7 8 9 10 11 12 13 14 15 16 17 18 19 20 21 22 23 24 25 26 27 28 29 30 31 32 33 34 35 36 37 38 39 40 41 42 43 44 45 46 47 48 49 50
000
ASUS45 KTFX 020204
RWRMT
MONTANA HOURLY WEATHER ROUNDUP
NATIONAL WEATHER SERVICE GREAT FALLS MT
804 PM MDT WED OCT 1 2014

NOTE: "FAIR" INDICATES FEW OR NO CLOUDS BELOW 12000 FEET WITH NO
SIGNIFICANT WEATHER AND/OR OBSTRUCTIONS TO VISIBILITY.

* THESE STATIONS ARE NOT UNDER NWS QUALITY CONTROL. THEY DO NOT
   REPORT WEATHER SUCH AS PRECIPITATION OR FOG.

MTZ001>007-043-020300-
WEST OF THE DIVIDE
CITY           SKY/WX    TMP DP  RH WIND       PRES   REMARKS
KALISPELL      CLOUDY    52  36  55 SW12      30.01F
MISSOULA       CLOUDY    50  36  59 NW3       30.10S
BUTTE          PTCLDY    43  25  49 NW12      30.09R
MULLAN PASS    MOCLDY    36  34  92 VRB7G18   30.08R WCI  30
* ESSEX        N/A       45  34  65 W4         N/A
* LINCOLN      N/A       47  28  48 SW7G19     N/A
* LOOKOUT PASS N/A       44  36  74 SE10G19    N/A
* POLSON       N/A       47  32  56 S2G9       N/A
* RONAN APT    MOCLDY    50  36  59 N/A        N/A
* SEELEY LAKE  N/A       47  31  54 W5G14      N/A
* THOMP F APT  PTCLDY    41  23  49 N5G12      N/A
* YAAK HILL    N/A       54  31  42 S2G9       N/A
$$

MTZ008-052>055-020300-
SOUTHWEST MONTANA
CITY           SKY/WX    TMP DP  RH WIND       PRES   REMARKS
BOZEMAN        FAIR      48  28  46 W9        30.03R
DILLON         PTCLDY    45  25  45 W13       30.09R
W YELLOWSTONE  MOCLDY    37  32  82 SW9       30.11R WCI  30
* THREE FORKS  CLEAR     48  46  93 N/A        N/A
* BOULDER HILL N/A       42  19  40 NE1G7      N/A
* MONIDA PASS  N/A       37  24  59 W6         N/A   WCI  32
* RAYNOLDS PAS N/A       38  35  89 VRB1       N/A
* WHITEHALL    N/A       49  27  43 W9G19      N/A
* WISE RIVER   N/A       42  23  47 W12G24     N/A
$$

MTZ009>010-012-014-046-048-049-054-020300-
EAST SLOPES AND CENTRAL MONTANA
CITY           SKY/WX    TMP DP  RH WIND       PRES   REMARKS
GREAT FALLS    CLEAR     46  28  50 SW12      29.91S
HELENA         CLEAR     52  25  35 W16G26    30.02R
MALMSTROM AFB  CLEAR     50  30  46 SW14      29.93R
* CONRAD       PTCLDY    45  28  51 N/A        N/A
* DEARBORN     N/A       54  29  38 S17G25     N/A
* EAST GLACIER N/A       44  29  56 W24G34     N/A
* MONARCH      N/A       41  19  41 SW9        N/A
* PENDROY      N/A       42  21  43 W9G14      N/A
* ROGERS PASS  N/A       42  27  55 SE13G32    N/A
* SAINT MARY   N/A       46  28  50 SW9G23     N/A
* SWEET GRASS  N/A       49  27  43 W17G26     N/A
$$

MTZ011-013-016-021-035-040-045-047-050-051-020300-
NORTH CENTRAL MONTANA
CITY           SKY/WX    TMP DP  RH WIND       PRES   REMARKS
HAVRE          PTCLDY    54  32  43 W12       29.82S
LEWISTOWN      FAIR      45  34  65 SW12      29.93S
* CHESTER      N/A       53  28  38 W14G22     N/A
* DENTON       N/A       45  29  54 SW11       N/A
* JUDITH GAP   N/A       45  25  45 W7         N/A
* LOMA         N/A       56  29  36 SW7        N/A
$$

MTZ017>020-022>027-061-062-020300-
NORTHEAST MONTANA
CITY           SKY/WX    TMP DP  RH WIND       PRES   REMARKS
GLASGOW        CLEAR     54  34  47 CALM      29.85R
GLENDIVE       CLOUDY    48  43  83 W7        29.91R
JORDAN         CLEAR     45  36  71 CALM      29.90R
SIDNEY         CLOUDY    54  43  67 SW6       29.88R
WOLF POINT     PTCLDY    48  37  66 W5        29.86R
* BEAVER HILL  N/A       49  44  83 SW9        N/A
* CIRCLE       N/A       48  42  80 N/A        N/A
* LINDSAY DVD  N/A       45  41  86 W8         N/A
* NAVAJO       N/A       47  37  68 W8         N/A
$$

MTZ028>042-056>058-020300-
SOUTHCENTRAL AND SOUTHEAST MONTANA
CITY           SKY/WX    TMP DP  RH WIND       PRES   REMARKS
BAKER          CLEAR     45  41  86 W7        29.92R
BILLINGS       FAIR      50  36  59 SW8       29.97R
LIVINGSTON     CLEAR     46  32  58 W10       29.99R
MILES CITY     CLEAR     48  32  54 NW7       29.92S
* LAUREL APT   CLEAR     43  34  71 N/A        N/A
* ROUNDUP APT  CLEAR     52  34  50 S6         N/A
* ALZADA       N/A       45  38  77 W1         N/A
* HYSHAM       N/A       50  26  39 W1         N/A
* LAME DEER    N/A       45  29  54 NW4        N/A
* REED POINT   N/A       50  29  44 W9         N/A
* ROSCOE HILL  N/A       44  17  34 SE7        N/A
$$

REGIONAL REPORTS...DAKOTAS
CITY           SKY/WX    TMP DP  RH WIND       PRES   REMARKS
WILLISTON      MOCLDY    52  45  77 SW8       29.83R
DICKINSON      LGT RAIN  50  46  86 W7        29.87R
BEACH          N/A       46  46 100 W8        29.90R
CROSBY         CLEAR     50  48  93 W12       29.80R
TIOGA          MOCLDY    48  48 100 SW8       29.85R
WATFORD CITY   CLOUDY    50  45  83 W5        29.83S
BISMARCK       CLOUDY    57  48  72 W8        29.84R
GRAND FORKS    CLOUDY    61  52  72 W5        29.71R
FARGO          CLOUDY    63  52  68 SW8       29.76R
BUFFALO SD     MOCLDY    46  39  77 W7        29.86R
RAPID CITY     CLOUDY    52  41  66 N8        29.95R
$$

REGIONAL REPORTS...WYOMING/IDAHO/WASHINGTON
CITY           SKY/WX    TMP DP  RH WIND       PRES   REMARKS
GILLETTE       MOCLDY    43  37  79 W6        30.00R
SHERIDAN       PTCLDY    39  34  82 W7        29.99R WCI  34
CODY           PTCLDY    43  37  79 S6        30.03S
YELLOWSTONE LA PTCLDY    32  28  85 CALM      30.14R
SALMON         CLEAR     45  32  60 CALM      30.10R
MULLAN PASS    MOCLDY    36  34  92 VRB7G18   30.08S WCI  30
SAND POINT     CLOUDY    55  34  45 SW8       30.01S
SPOKANE        MOCLDY    57  36  46 SW15      30.03F

$$




USA.gov is the U.S. government's official web portal to all federal, state and local government web resources and services.